{"data":{"norad_id":51118,"epoch":"2026-05-24T20:38:58.835616Z","epoch_age_seconds":90136,"freshness":"FRESH","line1":"1 51118U 22005Q   26144.86040319 -.00002514  00000+0 -13989-3 0  9999","line2":"2 51118  53.2133 307.1759 0001257  88.7016 271.4120 15.08851774240371","mean_motion":15.08851774,"eccentricity":0.0001257,"inclination_deg":53.2133,"raan_deg":307.1759,"arg_perigee_deg":88.7016,"mean_anomaly_deg":271.412,"bstar":-0.00013989,"rev_number":24037,"period_min":95.436809951353,"perigee_km":538.83782774921,"apogee_km":540.57697383157,"semimajor_km":6917.8444007904,"source":"CELESTRAK","updated_at":"2026-05-25T13:38:16.909528Z"}}